Location: Kaseke
(18.0171°S, 31.0526°E)
Time: 11:31:51
(UTC+00:00)

Cosmos 1655 Rocket - Pass Details

Date: 14 July 2020
Orbit: 970 x 1006 km, 83.0° (Epoch: 07 August)

Event Time Altitude Azimuth Distance (km) Brightness Sun altitude
Rises 03:28:08 0° 2° (N) 3,671 7.3 -14.1°
Reaches altitude 10° 03:30:39 10° 4° (N) 2,723 6.6 -13.5°
Maximum altitude 03:36:51 71° 87° (E) 1,031 4.3 -12.1°
Drops below altitude 10° 03:43:04 10° 170° (S) 2,731 6.3 -10.7°
Sets 03:45:35 0° 172° (S) 3,681 6.9 -10.1°
